GW6864 Weather Reports


Display with metric or nautical units.
time (UTC)temp
F
wind
direction
speed
MPH
gust
MPH
rain 1hr
in
rain 24hr
in
rain mn
in
humidity
%
barometer
mb
20260509011433 57 194 0.0 0.0 0.00 0.00 0.00 59 1013.5
20260509010931 57 194 0.0 0.0 0.00 0.00 0.00 58 1013.4
20260509010428 58 194 0.0 0.0 0.00 0.00 0.00 57 1013.6
20260509005924 58 194 0.0 0.0 0.00 0.00 0.00 55 1013.5
20260509005423 58 194 0.0 0.0 0.00 0.00 0.00 53 1013.5
20260509004922 59 194 0.0 0.0 0.00 0.00 0.00 51 1013.5
20260509004419 59 194 0.0 0.0 0.00 0.00 0.00 52 1013.6
20260509003917 60 194 0.0 0.0 0.00 0.00 0.00 50 1013.6
20260509003415 61 194 0.0 0.0 0.00 0.00 0.00 49 1013.7
20260509002911 62 194 0.0 0.0 0.00 0.00 0.00 48 1013.6
20260509002409 62 194 0.0 0.0 0.00 0.00 0.00 47 1013.5
20260509001906 63 194 0.0 0.0 0.00 0.00 0.00 45 1013.4
20260509001402 64 194 0.0 0.0 0.00 0.00 0.00 45 1013.4
20260509000859 65 194 0.0 0.0 0.00 0.00 0.00 45 1013.7
20260509000357 66 194 0.0 0.0 0.00 0.00 0.00 43 1013.7
20260508235853 67 201 2.0 2.0 0.00 0.00 0.00 42 1013.6
20260508235350 67 198 2.0 2.0 0.00 0.00 0.00 41 1013.7
20260508234847 68 180 1.0 1.0 0.00 0.00 0.00 41 1013.5
20260508234344 68 207 4.0 4.0 0.00 0.00 0.00 37 1013.8
20260508233842 69 202 3.0 4.0 0.00 0.00 0.00 38 1013.7
20260508233341 69 212 5.0 6.0 0.00 0.00 0.00 34 1013.7
20260508232838 69 196 3.0 3.0 0.00 0.00 0.00 36 1013.5
20260508232334 70 199 2.0 2.0 0.00 0.00 0.00 37 1013.8
20260508231833 70 193 1.0 2.0 0.00 0.00 0.00 33 1013.6
20260508231328 70 205 2.0 2.0 0.00 0.00 0.00 34 1013.6
20260508230825 69 201 3.0 3.0 0.00 0.00 0.00 33 1013.8
20260508230322 70 202 2.0 3.0 0.00 0.00 0.00 35 1013.5
20260508225820 71 181 2.0 2.0 0.00 0.00 0.00 32 1013.6
20260508225316 71 208 2.0 4.0 0.00 0.00 0.00 30 1013.7
20260508224814 70 171 4.0 6.0 0.00 0.00 0.00 30 1013.7
20260508224311 70 198 2.0 2.0 0.00 0.00 0.00 32 1013.8
20260508223809 71 203 4.0 4.0 0.00 0.00 0.00 32 1013.9
20260508223306 71 207 3.0 6.0 0.00 0.00 0.00 30 1014.0
20260508222804 71 197 3.0 4.0 0.00 0.00 0.00 28 1014.0
20260508222300 71 224 5.0 6.0 0.00 0.00 0.00 30 1014.3
20260508221757 72 208 4.0 4.0 0.00 0.00 0.00 30 1014.2
20260508221253 72 218 4.0 4.0 0.00 0.00 0.00 31 1014.2
20260508220749 72 212 2.0 3.0 0.00 0.00 0.00 27 1014.2
20260508220246 73 203 3.0 4.0 0.00 0.00 0.00 29 1014.3
20260508215742 72 202 1.0 1.0 0.00 0.00 0.00 30 1014.2
20260508215239 73 234 6.0 8.0 0.00 0.00 0.00 29 1014.1
20260508214736 73 214 4.0 6.0 0.00 0.00 0.00 28 1014.3
20260508214233 73 195 4.0 6.0 0.00 0.00 0.00 30 1014.1
20260508213729 73 184 4.0 4.0 0.00 0.00 0.00 27 1014.1
20260508213226 73 245 2.0 3.0 0.00 0.00 0.00 30 1014.2
20260508212723 73 210 4.0 4.0 0.00 0.00 0.00 31 1014.1
20260508212219 74 223 9.0 13.0 0.00 0.00 0.00 27 1014.3
20260508211715 73 192 2.0 2.0 0.00 0.00 0.00 32 1014.3
20260508211211 74 244 4.0 4.0 0.00 0.00 0.00 30 1014.2
20260508210709 73 196 1.0 1.0 0.00 0.00 0.00 34 1014.4
20260508210205 73 106 3.0 3.0 0.00 0.00 0.00 29 1014.1
20260508205702 72 206 2.0 2.0 0.00 0.00 0.00 32 1014.3
20260508205158 72 201 6.0 7.0 0.00 0.00 0.00 26 1014.4
20260508204655 73 197 5.0 8.0 0.00 0.00 0.00 27 1014.2
20260508204151 74 216 2.0 3.0 0.00 0.00 0.00 29 1014.1
20260508203647 73 205 4.0 6.0 0.00 0.00 0.00 31 1014.2
20260508203144 73 205 2.0 3.0 0.00 0.00 0.00 27 1014.2
20260508202640 73 170 3.0 3.0 0.00 0.00 0.00 29 1014.3
20260508202137 73 212 3.0 3.0 0.00 0.00 0.00 28 1014.6
20260508201634 73 250 3.0 3.0 0.00 0.00 0.00 29 1014.6
20260508201131 73 163 0.0 0.0 0.00 0.00 0.00 27 1014.7
20260508200628 72 174 1.0 1.0 0.00 0.00 0.00 32 1014.4
20260508200123 72 185 1.0 2.0 0.00 0.00 0.00 32 1014.6
20260508195620 71 194 2.0 2.0 0.00 0.00 0.00 28 1014.7
20260508195117 72 207 4.0 6.0 0.00 0.00 0.00 24 1014.8
20260508194613 72 220 8.0 9.0 0.00 0.00 0.00 27 1014.9
20260508194111 72 242 4.0 6.0 0.00 0.00 0.00 30 1014.9
20260508193607 72 197 3.0 3.0 0.00 0.00 0.00 27 1015.1
20260508193104 72 214 1.0 1.0 0.00 0.00 0.00 35 1015.1
20260508192600 71 320 3.0 3.0 0.00 0.00 0.00 27 1015.2
20260508192058 71 118 2.0 2.0 0.00 0.00 0.00 31 1015.3
20260508191554 71 213 2.0 2.0 0.00 0.00 0.00 34 1015.5
20260508191051 71 256 2.0 3.0 0.00 0.00 0.00 28 1015.8
20260508190548 71 74 2.0 3.0 0.00 0.00 0.00 25 1015.8
20260508190044 71 221 3.0 3.0 0.00 0.00 0.00 29 1015.8
20260508185542 71 204 5.0 7.0 0.00 0.00 0.00 31 1015.9
20260508185039 71 183 3.0 3.0 0.00 0.00 0.00 34 1016.2
20260508184537 70 138 1.0 1.0 0.00 0.00 0.00 27 1016.0
20260508184033 70 198 5.0 7.0 0.00 0.00 0.00 29 1016.2
20260508183530 71 249 5.0 6.0 0.00 0.00 0.00 27 1016.4
20260508183026 71 148 3.0 3.0 0.00 0.00 0.00 29 1016.3
20260508182523 70 214 2.0 2.0 0.00 0.00 0.00 26 1016.8
20260508182019 70 47 4.0 6.0 0.00 0.00 0.00 30 1016.7
20260508181514 70 161 4.0 4.0 0.00 0.00 0.00 30 1016.7
20260508181013 70 213 5.0 6.0 0.00 0.00 0.00 28 1016.8
20260508180509 70 174 2.0 2.0 0.00 0.00 0.00 32 1016.7
20260508180005 70 199 2.0 2.0 0.00 0.00 0.00 31 1016.6
20260508175501 69 215 2.0 2.0 0.00 0.00 0.00 36 1016.8
20260508174959 69 202 2.0 3.0 0.00 0.00 0.00 30 1016.9
20260508174457 69 158 2.0 3.0 0.00 0.00 0.00 29 1017.2
20260508173953 68 211 1.0 1.0 0.00 0.00 0.00 35 1016.9
20260508173450 68 201 5.0 6.0 0.00 0.00 0.00 30 1017.1
20260508172946 68 281 5.0 7.0 0.00 0.00 0.00 28 1017.1
20260508172444 68 127 3.0 3.0 0.00 0.00 0.00 28 1017.4
20260508171940 68 48 2.0 2.0 0.00 0.00 0.00 33 1017.7
20260508171436 68 115 3.0 3.0 0.00 0.00 0.00 32 1017.6
20260508170933 68 213 1.0 1.0 0.00 0.00 0.00 31 1017.6
20260508170431 68 93 3.0 3.0 0.00 0.00 0.00 30 1017.7
20260508165927 67 208 2.0 2.0 0.00 0.00 0.00 29 1017.9
20260508165425 68 218 4.0 4.0 0.00 0.00 0.00 30 1018.0
20260508164921 68 87 2.0 2.0 0.00 0.00 0.00 31 1018.1
20260508164418 67 34 3.0 3.0 0.00 0.00 0.00 33 1018.1
20260508163915 68 326 2.0 2.0 0.00 0.00 0.00 28 1018.3
20260508163413 67 171 2.0 2.0 0.00 0.00 0.00 34 1018.2
20260508162908 65 161 1.0 1.0 0.00 0.00 0.00 38 1018.3
20260508162406 66 215 3.0 3.0 0.00 0.00 0.00 32 1018.5
20260508161902 65 171 2.0 2.0 0.00 0.00 0.00 30 1018.6
20260508161400 66 209 3.0 4.0 0.00 0.00 0.00 32 1018.5
20260508160857 66 213 4.0 4.0 0.00 0.00 0.00 32 1018.7
20260508160356 66 96 4.0 6.0 0.00 0.00 0.00 33 1018.8
20260508155851 66 139 1.0 1.0 0.00 0.00 0.00 30 1018.9
20260508155349 65 148 1.0 1.0 0.00 0.00 0.00 36 1019.2
20260508154846 65 146 4.0 6.0 0.00 0.00 0.00 36 1018.9
20260508154343 64 72 2.0 3.0 0.00 0.00 0.00 33 1019.2
20260508153839 66 194 2.0 3.0 0.00 0.00 0.00 33 1019.1
20260508153337 66 146 1.0 1.0 0.00 0.00 0.00 35 1019.4
20260508152833 64 189 3.0 3.0 0.00 0.00 0.00 41 1019.5
20260508152329 64 155 3.0 3.0 0.00 0.00 0.00 31 1019.4
20260508151826 64 212 4.0 4.0 0.00 0.00 0.00 36 1019.7
20260508151323 64 186 0.0 0.0 0.00 0.00 0.00 40 1019.6
20260508150819 64 202 3.0 3.0 0.00 0.00 0.00 38 1019.6
20260508150316 63 185 1.0 1.0 0.00 0.00 0.00 40 1019.8
20260508145812 64 210 3.0 3.0 0.00 0.00 0.00 37 1019.8
20260508145308 64 163 1.0 1.0 0.00 0.00 0.00 40 1019.8
20260508144806 63 160 0.0 0.0 0.00 0.00 0.00 41 1019.5
20260508144303 62 147 2.0 2.0 0.00 0.00 0.00 46 1019.8
20260508143801 62 189 1.0 2.0 0.00 0.00 0.00 44 1019.7
20260508143258 63 236 3.0 4.0 0.00 0.00 0.00 42 1019.8
20260508142754 62 194 2.0 2.0 0.00 0.00 0.00 50 1019.7
20260508142251 62 140 1.0 2.0 0.00 0.00 0.00 48 1019.7
20260508141747 61 130 1.0 1.0 0.00 0.00 0.00 55 1019.9
20260508141245 60 172 0.0 1.0 0.00 0.00 0.00 56 1019.8
20260508140742 60 144 1.0 1.0 0.00 0.00 0.00 53 1020.0
20260508140239 59 152 1.0 1.0 0.00 0.00 0.00 59 1019.8
20260508135735 59 202 2.0 3.0 0.00 0.00 0.00 58 1019.8
20260508135231 58 168 1.0 1.0 0.00 0.00 0.00 65 1019.8
20260508134726 59 209 2.0 2.0 0.00 0.00 0.00 59 1020.0
20260508134224 57 167 1.0 1.0 0.00 0.00 0.00 65 1019.9
20260508133721 56 132 2.0 2.0 0.00 0.00 0.00 65 1019.9
20260508133219 56 155 1.0 1.0 0.00 0.00 0.00 63 1020.0
20260508132716 55 125 2.0 2.0 0.00 0.00 0.00 66 1020.0
20260508132214 54 164 1.0 1.0 0.00 0.00 0.00 72 1019.9
20260508131708 53 148 1.0 1.0 0.00 0.00 0.00 71 1019.7
20260508131206 52 181 0.0 0.0 0.00 0.00 0.00 71 1019.7
20260508130702 52 168 0.0 0.0 0.00 0.00 0.00 79 1019.6
20260508130159 50 173 0.0 0.0 0.00 0.00 0.00 78 1019.6
20260508125654 50 133 1.0 2.0 0.00 0.00 0.00 80 1019.7
20260508125151 49 141 2.0 3.0 0.00 0.00 0.00 78 1019.7
20260508124649 49 171 0.0 0.0 0.00 0.00 0.00 82 1019.7
20260508124146 48 141 2.0 2.0 0.00 0.00 0.00 81 1019.6
20260508123645 48 145 1.0 1.0 0.00 0.00 0.00 81 1019.7
20260508123142 48 145 2.0 2.0 0.00 0.00 0.00 83 1019.6
20260508122638 47 157 1.0 0.0 0.00 0.00 0.00 86 1019.8
20260508122135 46 149 1.0 1.0 0.00 0.00 0.00 84 1019.5
20260508121633 46 154 1.0 1.0 0.00 0.00 0.00 86 1019.5
20260508121131 46 137 2.0 2.0 0.00 0.00 0.00 86 1019.5
20260508120628 45 148 0.0 0.0 0.00 0.00 0.00 89 1019.2
20260508120126 44 159 1.0 0.0 0.00 0.00 0.00 92 1019.4
20260508115624 43 140 1.0 1.0 0.00 0.00 0.00 94 1019.1
20260508115120 43 143 0.0 1.0 0.00 0.00 0.00 95 1019.1
20260508114618 42 144 1.0 1.0 0.00 0.00 0.00 96 1019.0
20260508114113 42 151 0.0 0.0 0.00 0.00 0.00 96 1019.0
20260508113611 41 151 1.0 1.0 0.00 0.00 0.00 97 1019.1
20260508113109 41 146 1.0 1.0 0.00 0.00 0.00 97 1018.9
20260508112605 40 152 0.0 1.0 0.00 0.00 0.00 97 1018.9
20260508112102 39 152 0.0 0.0 0.00 0.00 0.00 97 1018.9
20260508111559 39 153 0.0 0.0 0.00 0.00 0.00 97 1018.9
20260508111056 39 143 1.0 1.0 0.00 0.00 0.00 97 1018.7
20260508110554 39 200 0.0 0.0 0.00 0.00 0.00 97 1018.7
20260508110049 38 200 0.0 0.0 0.00 0.00 0.00 97 1018.7
20260508105544 38 199 0.0 0.0 0.00 0.00 0.00 97 1018.6
20260508105042 38 199 0.0 0.0 0.00 0.00 0.00 97 1018.6
20260508104540 38 199 0.0 0.0 0.00 0.00 0.00 97 1018.3
20260508104036 38 199 0.0 0.0 0.00 0.00 0.00 97 1018.4
20260508103533 38 199 0.0 0.0 0.00 0.00 0.00 97 1018.3
20260508103031 38 199 0.0 0.0 0.00 0.00 0.00 97 1018.4
20260508102528 38 199 0.0 0.0 0.00 0.00 0.00 96 1018.3
20260508102026 38 199 0.0 0.0 0.00 0.00 0.00 96 1018.4
20260508101523 39 199 0.0 0.0 0.00 0.00 0.00 96 1018.3
20260508101020 39 199 0.0 0.0 0.00 0.00 0.00 96 1018.3
20260508100518 39 199 1.0 1.0 0.00 0.00 0.00 96 1018.1
20260508100015 39 199 0.0 0.0 0.00 0.00 0.00 96 1018.1
20260508095512 39 199 0.0 0.0 0.00 0.00 0.00 96 1018.1
20260508095008 39 199 0.0 0.0 0.00 0.00 0.00 96 1018.0
20260508094506 39 199 0.0 0.0 0.00 0.00 0.00 96 1018.0
20260508094002 39 199 0.0 0.0 0.00 0.00 0.00 96 1018.0
20260508093459 39 199 0.0 0.0 0.00 0.00 0.00 96 1018.0
20260508092957 39 199 0.0 0.0 0.00 0.00 0.00 96 1017.8
20260508092454 39 199 0.0 0.0 0.00 0.00 0.00 96 1018.0
20260508091953 40 199 0.0 0.0 0.00 0.00 0.00 96 1018.0
20260508091450 40 199 0.0 0.0 0.00 0.00 0.00 96 1018.1
20260508090947 40 199 0.0 1.0 0.00 0.00 0.00 96 1018.0
20260508090446 40 199 0.0 0.0 0.00 0.00 0.00 96 1018.1
20260508085941 40 199 0.0 0.0 0.00 0.00 0.00 96 1018.1
20260508085438 40 200 0.0 0.0 0.00 0.00 0.00 96 1017.7
20260508084935 40 199 0.0 0.0 0.00 0.00 0.00 96 1017.8
20260508084431 40 199 0.0 0.0 0.00 0.00 0.00 96 1017.8
20260508083929 40 200 0.0 0.0 0.00 0.00 0.00 96 1017.8
20260508083426 40 200 0.0 0.0 0.00 0.00 0.00 96 1018.1
20260508082926 40 200 0.0 0.0 0.00 0.00 0.00 96 1018.1
20260508082424 40 200 0.0 0.0 0.00 0.00 0.00 95 1018.0
20260508081922 41 200 0.0 0.0 0.00 0.00 0.00 95 1018.1
20260508081418 41 200 0.0 0.0 0.00 0.00 0.00 95 1018.0
20260508080914 41 200 0.0 0.0 0.00 0.00 0.00 95 1018.1
20260508080413 41 200 0.0 0.0 0.00 0.00 0.00 95 1018.3
20260508075909 42 200 0.0 0.0 0.00 0.00 0.00 95 1018.2
20260508075406 42 200 0.0 0.0 0.00 0.00 0.00 95 1017.9
20260508074904 42 200 0.0 0.0 0.00 0.00 0.00 95 1018.0
20260508074401 42 200 0.0 0.0 0.00 0.00 0.00 95 1018.1
20260508073857 42 200 0.0 0.0 0.00 0.00 0.00 95 1018.0
20260508073356 42 200 0.0 0.0 0.00 0.00 0.00 95 1018.1
20260508072852 42 200 0.0 0.0 0.00 0.00 0.00 95 1018.1
20260508072348 42 200 0.0 0.0 0.00 0.00 0.00 95 1018.2
20260508071845 42 200 0.0 0.0 0.00 0.00 0.00 95 1018.2
20260508071344 42 200 0.0 0.0 0.00 0.00 0.00 95 1018.2
20260508070841 42 200 0.0 0.0 0.00 0.00 0.00 94 1018.3
20260508070339 42 200 0.0 0.0 0.00 0.00 0.00 94 1018.2
20260508065837 42 200 0.0 0.0 0.00 0.00 0.00 94 1018.4
20260508065335 42 200 0.0 0.0 0.00 0.00 0.00 94 1018.2
20260508064833 42 200 0.0 0.0 0.00 0.00 0.00 94 1018.5
20260508064330 42 200 0.0 0.0 0.00 0.00 0.00 94 1018.5
20260508063827 42 200 0.0 0.0 0.00 0.00 0.00 94 1018.5
20260508063325 43 200 0.0 0.0 0.00 0.00 0.00 94 1018.3
20260508062822 43 200 0.0 0.0 0.00 0.00 0.00 93 1018.4
20260508062320 43 200 0.0 0.0 0.00 0.00 0.00 93 1018.3
20260508061816 43 200 0.0 0.0 0.00 0.00 0.00 93 1018.5
20260508061313 43 200 0.0 0.0 0.00 0.00 0.00 93 1018.5
20260508060810 43 200 0.0 0.0 0.00 0.00 0.00 93 1018.6
20260508060308 43 200 0.0 0.0 0.00 0.00 0.00 92 1018.6
20260508055808 43 200 0.0 0.0 0.00 0.00 0.00 92 1018.5
20260508055307 43 200 0.0 0.0 0.00 0.00 0.00 91 1018.5
20260508054802 43 200 0.0 0.0 0.00 0.00 0.00 91 1018.3
20260508054300 43 200 0.0 0.0 0.00 0.00 0.00 90 1018.4
20260508053757 43 200 0.0 0.0 0.00 0.00 0.00 89 1018.4
20260508053254 43 200 0.0 0.0 0.00 0.00 0.00 88 1018.4
20260508052751 43 200 0.0 0.0 0.00 0.00 0.00 88 1018.4
20260508052249 43 200 0.0 0.0 0.00 0.00 0.00 88 1018.6
20260508051744 43 200 0.0 0.0 0.00 0.00 0.00 90 1018.5
20260508051240 43 200 0.0 0.0 0.00 0.00 0.00 89 1018.3
20260508050737 43 200 0.0 0.0 0.00 0.00 0.00 88 1018.4
20260508050234 44 200 0.0 0.0 0.00 0.00 0.00 88 1018.3
20260508045729 44 200 0.0 0.0 0.00 0.01 0.01 88 1018.5
20260508045228 44 200 0.0 0.0 0.00 0.01 0.01 88 1018.8
20260508044725 44 200 0.0 0.0 0.00 0.01 0.01 89 1018.5
20260508044221 44 200 0.0 0.0 0.00 0.01 0.01 88 1018.5
20260508043717 44 200 0.0 0.0 0.00 0.01 0.01 88 1018.6
20260508043215 45 200 0.0 0.0 0.00 0.01 0.01 88 1018.8
20260508042711 45 200 0.0 0.0 0.00 0.01 0.01 87 1018.7
20260508042209 45 200 0.0 0.0 0.00 0.01 0.01 85 1018.7
20260508041705 46 200 0.0 0.0 0.00 0.01 0.01 82 1018.7
20260508041202 46 200 0.0 0.0 0.00 0.01 0.01 82 1018.6
20260508040659 46 200 0.0 0.0 0.00 0.01 0.01 84 1018.3
20260508040156 46 200 0.0 0.0 0.00 0.01 0.01 83 1018.5
20260508035654 46 200 0.0 0.0 0.00 0.01 0.01 82 1018.3
20260508035151 47 200 0.0 0.0 0.00 0.01 0.01 81 1018.3
20260508034647 47 200 0.0 0.0 0.00 0.01 0.01 80 1018.2
20260508034144 47 200 0.0 0.0 0.00 0.01 0.01 78 1018.2
20260508033641 48 200 0.0 0.0 0.00 0.01 0.01 78 1018.1
20260508033140 48 200 0.0 0.0 0.00 0.01 0.01 76 1018.2
20260508032636 48 200 0.0 0.0 0.00 0.01 0.01 76 1018.3
20260508032133 48 200 0.0 0.0 0.00 0.01 0.01 77 1018.2
20260508031630 48 200 0.0 0.0 0.00 0.01 0.01 77 1018.0
20260508031127 49 200 0.0 0.0 0.00 0.01 0.01 77 1018.1
20260508030623 49 200 0.0 0.0 0.00 0.01 0.01 78 1018.1
20260508030121 49 200 0.0 0.0 0.00 0.01 0.01 76 1017.9
20260508025617 49 200 0.0 0.0 0.00 0.01 0.01 74 1018.1
20260508025114 49 200 0.0 0.0 0.00 0.01 0.01 73 1018.1
20260508024610 48 200 0.0 0.0 0.00 0.01 0.01 77 1018.1
20260508024108 48 200 0.0 0.0 0.00 0.01 0.01 77 1018.0
20260508023603 49 200 0.0 0.0 0.00 0.01 0.01 76 1018.0
20260508023101 49 200 0.0 0.0 0.00 0.01 0.01 75 1018.1
20260508022557 49 200 0.0 0.0 0.00 0.01 0.01 74 1018.0
20260508022054 49 200 0.0 0.0 0.00 0.01 0.01 76 1017.8
20260508021550 50 200 0.0 0.0 0.00 0.01 0.01 77 1018.1
20260508021046 50 200 0.0 0.0 0.00 0.01 0.01 74 1017.9
20260508020543 51 201 0.0 0.0 0.00 0.01 0.01 75 1017.7
20260508020041 51 200 0.0 0.0 0.00 0.01 0.01 75 1017.6
20260508015539 51 200 0.0 0.0 0.00 0.01 0.01 76 1017.7
20260508015035 51 200 0.0 0.0 0.00 0.01 0.01 76 1017.6
20260508014531 50 200 0.0 0.0 0.00 0.01 0.01 72 1017.3
20260508014028 51 201 0.0 0.0 0.00 0.01 0.01 71 1017.1
20260508013524 51 200 0.0 0.0 0.00 0.01 0.01 71 1017.2
20260508013022 51 200 0.0 0.0 0.00 0.01 0.01 71 1017.3
20260508012519 51 200 0.0 0.0 0.00 0.01 0.01 72 1017.1
20260508012016 52 200 0.0 0.0 0.00 0.01 0.01 73 1017.1